Location: Ladrillo (historical)
(32.8195°N, 117.2231°W)
Time: 21:09:21
(UTC+00:00)

Cosmos 1992 Rocket - Pass Details

Date: 29 October 2020
Orbit: 759 x 765 km, 74.0° (Epoch: 25 November)

Event Time Altitude Azimuth Distance (km) Brightness Sun altitude
Exits shadow 12:59:10 - 335° (NNW) 3,162 6.9 -14.3°
Reaches altitude 10° 13:01:26 10° 330° (NNW) 2,296 6.1 -13.8°
Maximum altitude 13:06:25 47° 258° (WSW) 1,000 4.2 -12.8°
Drops below altitude 10° 13:11:22 10° 185° (S) 2,287 6.5 -11.8°
Sets 13:13:48 0° 180° (S) 3,210 7.4 -11.3°
